Regional Weather Roundup
Issued by NWS State College, PA

Home | Current Version | Previous Version | Graphics & Text | Print | Product List | Glossary On
Versions: 1 2 3 4 5 6 7 8 9 10 11 12 13 14 15 16 17 18 19 20 21 22 23 24 25 26 27 28 29 30 31 32 33 34 35 36 37 38 39 40 41 42 43 44 45 46 47 48 49 50
000
ASUS41 KCTP 240410
RWRCTP

REGIONAL WEATHER ROUNDUP
NATIONAL WEATHER SERVICE STATE COLLEGE PA
1200 AM EDT THU JUL 24 2014

Note: "fair" indicates few or no clouds below 12,000 feet with no
significant weather and/or obstructions to visibility.

* = STATION THAT DOES NOT REPORT PRECIPITATION /E.G. RAIN...SNOW...ETC/
    THUNDER OR FOG.

PAZ002>004-007>009-013>016-020>023-029>032-240500-
WESTERN PENNSYLVANIA

CITY           SKY/WX    TMP DP  RH WIND       PRES   REMARKS
ERIE           CLOUDY    66  54  65 N7        30.02F
MEADVILLE      MOCLDY    61  56  83 N6        30.03S
FRANKLIN*      CLOUDY    61  55  82 N5        30.03S
NEW CASTLE       N/A     62  60  93 CALM      30.02F
BEAVER COUNTY  NOT AVBL
BUTLER*        CLOUDY    63  57  82 NW3       30.02F
PITTSBURGH INT MOCLDY    66  60  81 N9        30.00F
PITTSBURGH     CLOUDY    66  59  78 VRB6      30.00S
INDIANA*       CLOUDY    66  63  88 VRB5      30.03S
LATROBE        MOCLDY    66  63  88 N3        30.00S
WASHINGTON CO* CLOUDY    64  57  77 N8        30.01S
$$

PAZ004>006-010>012-017>019-024>028-033>037-041-042-045-046-049>053-240500-
CENTRAL PENNSYLVANIA

CITY           SKY/WX    TMP DP  RH WIND       PRES   REMARKS
BRADFORD       CLOUDY    61  56  83 N8        30.01S
DUBOIS         CLOUDY    64  60  87 NW8       29.99S
CLEARFIELD     CLOUDY    65  61  87 NW7       29.98S
JOHNSTOWN      CLOUDY    64  59  83 NW7       30.00F
ALTOONA        CLOUDY    70  64  81 N9        29.96F
STATE COLLEGE  CLOUDY    68  63  83 NW6       29.95S
WILLIAMSPORT   MOCLDY    71  59  65 NW8       29.91R
SELINSGROVE    CLOUDY    74  63  68 N7        29.91R
FT INDIANTOWN  CLEAR     73  73  99 VRB7      29.88R
CAPITAL CITY   CLEAR     78  67  68 N6        29.87R
HARRISBURG     PTCLDY    74  70  87 NW5       29.86S
YORK           CLEAR     70  68  93 W3        29.87S
$$

PAZ038>040-043-044-047-048-054-055-060>062-067>071-240500-
EASTERN PENNSYLVANIA

CITY           SKY/WX    TMP DP  RH WIND       PRES   REMARKS
SCRANTON       CLOUDY    71  63  75 N5        29.92S
MOUNT POCONO   MOCLDY    65  61  87 N12G22    29.92F
ALLENTOWN      PTCLDY    71  68  90 NW5       29.87R
QUAKERTOWN*    MOCLDY    72  70  94 W3        29.87R
READING        CLOUDY    73  70  90 NE3       29.86R
LANCASTER      CLEAR     69  68  96 W5        29.87R FOG
COATESVILLE    PTCLDY    68  68 100 W3        29.87S
POTTSTOWN      PTCLDY    71  69  93 CALM      29.87R
BLUE BELL      MOCLDY    72  72 100 CALM      29.84R
DOYLESTOWN     MOCLDY    71  70  96 VRB3      29.84S
WILLOW GROVE   NOT AVBL
NORTH PHILA    MOCLDY    74  69  85 SW3       29.86R
PHILADELPHIA   MOCLDY    74  68  81 W3        29.84S
$$



USA.gov is the U.S. government's official web portal to all federal, state and local government web resources and services.